Location: Unspecified
(22.6800°N, 112.2000°E)
Time: 14:03:57
(UTC+08:00)

S-56A Canister/Altair - Pass Details

Date: 27 July 2021
Orbit: 632 x 2500 km, 38.9° (Epoch: 24 September)

Event Time Altitude Azimuth Distance (km) Brightness Sun altitude
Rises 15:47:52 0° 242° (WSW) 5,423 12.4 45.6°
Reaches altitude 10° 15:51:06 10° 243° (WSW) 4,616 12.3 44.9°
Maximum altitude 16:04:49 76° 328° (NNW) 2,523 11.1 41.7°
Drops below altitude 10° 16:19:58 10° 54° (NE) 5,022 11.4 38.3°
Sets 16:23:40 0° 57° (ENE) 5,904 11.7 37.4°
